TimeEST,TemperatureF,Dew PointF,Humidity,Sea Level PressureIn,VisibilityMPH,Wind Direction,Wind SpeedMPH,Gust SpeedMPH,PrecipitationIn,Events,Conditions,WindDirDegrees,DateUTC
12:51 AM,34.0,12.0,40,30.20,10.0,South,6.9,-,N/A,,Mostly Cloudy,190,2013-02-19 05:51:00
1:51 AM,34.0,10.9,38,30.18,10.0,SSW,10.4,-,N/A,,Scattered Clouds,210,2013-02-19 06:51:00
2:51 AM,33.1,10.9,40,30.15,10.0,SSW,5.8,-,N/A,,Scattered Clouds,200,2013-02-19 07:51:00
3:51 AM,33.1,12.9,43,30.14,10.0,South,5.8,-,N/A,,Scattered Clouds,190,2013-02-19 08:51:00
4:51 AM,34.0,15.1,46,30.13,10.0,South,8.1,-,N/A,,Partly Cloudy,190,2013-02-19 09:51:00
5:51 AM,34.0,19.0,54,30.09,10.0,South,4.6,-,N/A,,Partly Cloudy,180,2013-02-19 10:51:00
6:51 AM,33.1,21.0,61,30.08,10.0,South,5.8,-,N/A,,Partly Cloudy,170,2013-02-19 11:51:00
7:51 AM,37.0,23.0,57,30.07,10.0,South,8.1,-,N/A,,Mostly Cloudy,180,2013-02-19 12:51:00
8:51 AM,39.9,23.0,51,30.04,10.0,South,10.4,-,N/A,,Mostly Cloudy,180,2013-02-19 13:51:00
9:51 AM,42.1,23.0,47,30.01,10.0,South,9.2,-,N/A,,Overcast,180,2013-02-19 14:51:00
10:51 AM,44.1,28.9,55,29.97,10.0,SSE,16.1,-,N/A,,Overcast,160,2013-02-19 15:51:00
11:51 AM,46.0,32.0,58,29.94,10.0,SSE,11.5,-,N/A,,Overcast,160,2013-02-19 16:51:00
12:51 PM,45.0,35.1,68,29.92,9.0,South,10.4,-,N/A,Rain,Light Rain,180,2013-02-19 17:51:00
1:51 PM,45.0,36.0,71,29.87,10.0,SSW,10.4,-,0.04,Rain,Light Rain,200,2013-02-19 18:51:00
2:39 PM,44.6,37.4,76,29.84,9.0,South,12.7,-,0.01,Rain,Light Rain,170,2013-02-19 19:39:00
2:51 PM,43.0,37.9,82,29.83,8.0,South,12.7,-,0.02,Rain,Light Rain,170,2013-02-19 19:51:00
3:51 PM,44.1,39.9,85,29.76,10.0,South,13.8,20.7,0.03,Rain,Light Rain,170,2013-02-19 20:51:00
4:11 PM,44.6,39.2,81,29.75,10.0,South,11.5,17.3,0.00,Rain,Light Rain,180,2013-02-19 21:11:00
4:51 PM,44.1,39.9,85,29.73,9.0,South,11.5,-,0.00,Rain,Light Rain,180,2013-02-19 21:51:00
5:27 PM,44.6,41.0,87,29.72,4.0,South,10.4,-,0.03,Rain,Light Rain,190,2013-02-19 22:27:00
5:33 PM,44.6,41.0,87,29.73,5.0,SSW,11.5,-,0.03,Rain,Light Rain,200,2013-02-19 22:33:00
5:44 PM,44.6,41.0,87,29.72,7.0,SSW,6.9,-,0.03,Rain,Light Rain,200,2013-02-19 22:44:00
5:51 PM,45.0,41.0,86,29.72,6.0,South,8.1,-,0.04,Rain,Light Rain,190,2013-02-19 22:51:00
7:51 PM,46.9,41.0,80,29.67,10.0,WSW,12.7,23.0,0.00,,Overcast,240,2013-02-20 00:51:00
8:51 PM,46.0,39.0,76,29.68,10.0,West,15.0,23.0,0.00,,Overcast,260,2013-02-20 01:51:00
9:51 PM,45.0,36.0,71,29.69,10.0,West,17.3,26.5,0.00,,Mostly Cloudy,280,2013-02-20 02:51:00
10:51 PM,42.1,28.9,60,29.70,10.0,WNW,16.1,32.2,N/A,,Mostly Cloudy,290,2013-02-20 03:51:00
11:51 PM,39.9,23.0,51,29.72,10.0,West,18.4,25.3,N/A,,Partly Cloudy,280,2013-02-20 04:51:00